Location: North Runcton
(52.7000°N, 0.4333°E)
Time: 20:06:24
(UTC+00:00)

Cosmos 2341 Rocket - Visible Passes

Search period start: 06 February 2026 00:00
Search period end: 16 February 2026 00:00
Orbit: 967 x 1004 km, 82.9° (Epoch: 6 February)

Date Brightness Start Highest point End Pass type
(mag) Time Alt. Az. Time Alt. Az. Time Alt. Az.
6 Feb 5.6 03:08:57 28° ESE 03:10:03 30° E 03:15:26 10° NNE visible
6 Feb 4.0 04:53:52 49° WSW 04:55:18 60° WNW 05:01:34 10° N visible
6 Feb 5.5 06:39:00 10° W 06:42:23 15° NW 06:45:46 10° NNW visible
7 Feb 4.7 03:37:45 50° ESE 03:38:06 51° E 03:44:10 10° NNE visible
7 Feb 4.5 05:22:40 34° W 05:23:56 37° WNW 05:29:45 10° N visible
8 Feb 6.2 02:21:31 18° E 02:21:40 18° ENE 02:25:41 10° NE visible
8 Feb 3.9 04:06:26 84° E 04:06:26 84° E 04:12:41 10° NNE visible
8 Feb 5.1 05:51:20 21° W 05:52:47 23° WNW 05:57:41 10° N visible
9 Feb 5.6 02:50:07 30° ENE 02:50:07 30° ENE 02:54:53 10° NNE visible
9 Feb 4.0 04:35:01 59° WNW 04:35:01 59° WNW 04:41:01 10° N visible
9 Feb 5.5 06:19:54 13° WNW 06:21:51 15° NW 06:25:12 10° NNW visible
10 Feb 4.9 03:18:38 46° ENE 03:18:38 46° ENE 03:23:37 10° NNE visible
10 Feb 4.5 05:03:31 36° WNW 05:03:31 36° WNW 05:09:11 10° N visible
11 Feb 6.3 02:02:12 17° ENE 02:02:12 17° ENE 02:05:08 10° NE visible
11 Feb 4.3 03:47:05 60° NNE 03:47:05 60° NNE 03:52:08 10° NNE visible
11 Feb 5.1 05:31:58 23° WNW 05:32:15 23° WNW 05:37:08 10° N visible
12 Feb 5.8 02:30:37 27° ENE 02:30:37 27° ENE 02:34:19 10° NNE visible
12 Feb 4.3 04:15:30 50° NNW 04:15:30 50° NNW 04:20:28 10° N visible
12 Feb 5.5 06:00:23 14° WNW 06:01:18 14° NW 06:04:38 10° NNW visible
13 Feb 5.2 02:59:00 38° NE 02:59:00 38° NE 03:03:05 10° NNE visible
13 Feb 4.7 04:43:53 34° NW 04:43:53 34° NW 04:48:38 10° N visible
14 Feb 6.4 01:42:27 16° NE 01:42:27 16° NE 01:44:35 10° NE visible
14 Feb 4.8 03:27:21 46° NNE 03:27:21 46° NNE 03:31:35 10° NNE visible
14 Feb 5.2 05:12:13 23° NW 05:12:13 23° NW 05:16:35 10° N visible
15 Feb 5.9 02:10:46 24° NE 02:10:46 24° NE 02:13:46 10° NNE visible
15 Feb 4.7 03:55:40 42° NNW 03:55:40 42° NNW 03:59:55 10° N visible
15 Feb 5.6 05:40:32 14° NW 05:40:46 14° NW 05:44:04 10° NNW visible
